COSMOS 1933 (18958 NORAD) Tracking and Keplerian Element Data

This shows tracking and keplerian element data for the satellite.

Feedback or suggestion? Click here.




ElementValue
Catalog18958
NameCOSMOS 1933
Epoch Orbit1106
Epoch Day35.1694951
Epoch Year2025
RAAN283.8837
Inclination82.5133
Eccentricity0.0005393
Argument of Perigee121.8315
Mean Anonmoly238.3442
Mean Motion15.13698556
Decay Rate6.497E-05
L11 18958U 88020A 25035.16949510 .00006497 00000+0 35933-3 0 9990
L22 18958 82.5133 283.8837 0005393 121.8315 238.3442 15.13698556 11068



Live tracking and technical data element details for COSMOS 1933 (NORAD 18958). COSMOS 1933 can be tracked NOW for your location showing map with azimuth and elevation plus other details from your city location.







IsCatalogInMostPopularTable: catalog: 18958, numindb: 375
Update: records affected: 1



GetName: 18958 COSMOS 1933

Hit Count: updated at: Thu, 15 May 2025 11:02:52 GMT